Flag for Greenland Weather past 2 weeks in Qaanaaq, Greenland

Now
-17 °F

Sunny.


Feels Like: -41 °F
Forecast: -44 / -32 °F
Wind: 15 mph from Southeast

Location: Thule A. B.

Current Time: Jan 28, 2015 at 9:34:13 AM

Latest Report: Jan 28, 2015 at 8:58 AM


Visibility: N/A

Pressure: 30.14 "Hg

Humidity: 63%

Dew point: -26 °F

Location of QaanaaqLocation

Historic Weather in Qaanaaq — Graph

°F

Qaanaaq temperature yesterday

Maximum temperature yesterday: -13 °F (at 1:58 AM)
Minimum temperature yesterday: -20 °F (at 2:58 PM)
Average temperature yesterday: -15 °F

Past Weeks' High & Low Weather Summary

 TemperatureHumidityPressure
High25 °F (Jan 19, 1:58 AM)100% (Jan 26, 3:58 PM)30.12 "Hg (Jan 26, 3:58 PM)
Low-29 °F (Jan 26, 3:58 PM)51% (Jan 27, 12:58 AM)28.86 "Hg (Jan 19, 2:58 AM)
Average-11 °F71%29.57 "Hg
* Reported Jan 13 7:58 AM — Jan 28 7:58 AM, Qaanaaq, Weather by CustomWeather, © 2014

Note: Actual official high and low records may vary slightly from our data, if they occured in-between our weather recording intervals... More about our weather records

Advertising

Qaanaaq weather history for previous 24 hours

 ConditionsComfort  
Time TempWeatherWind HumidityBarometerVisibility
7:58 AM
Jan 28
-17 °FClear.12 mph57%30.12 "HgN/A
6:58 AM-17 °FPassing clouds.9 mph57%30.10 "HgN/A
5:58 AM-18 °FClear.7 mph62%30.07 "Hg4 mi
4:58 AM-18 °FClear.17 mph62%30.03 "HgN/A
3:58 AM-18 °FClear.13 mph62%30.01 "HgN/A
2:58 AM-20 °FSunny.9 mph62%29.97 "HgN/A
1:58 AM-17 °FClear.13 mph63%29.93 "HgN/A
12:58 AM-20 °FClear.No wind62%29.91 "HgN/A
11:58 PM
Jan 27
-18 °FClear.12 mph62%29.88 "HgN/A
10:58 PM-17 °FClear.9 mph63%29.85 "HgN/A
9:58 PM-17 °FPassing clouds.10 mph63%29.81 "HgN/A
8:58 PM-17 °FPassing clouds.12 mph57%29.78 "HgN/A
7:58 PM-17 °FSunny.24 mph63%29.72 "HgN/A
6:58 PM-17 °FSunny.25 mph69%29.67 "HgN/A
5:58 PM-17 °FSunny.26 mph69%29.61 "HgN/A
4:58 PM-17 °FPassing clouds.21 mph69%29.56 "HgN/A
3:58 PM-17 °FPassing clouds.9 mph63%29.52 "HgN/A
2:58 PM-20 °FSunny.6 mph68%29.46 "HgN/A
1:58 PM-18 °FSunny.8 mph62%29.41 "HgN/A
12:58 PM-18 °FSunny.8 mph69%29.36 "HgN/A
11:58 AM-15 °FSunny.18 mph63%29.31 "HgN/A
10:58 AM-13 °FSunny.16 mph63%29.28 "HgN/A
9:58 AM-13 °FSunny.18 mph63%29.24 "HgN/A
Weather by CustomWeather, © 2014

See weather overviewHow to use our weather pages